Change the Weather History Date:

Tuesday, May 28, 2013

  Actual Average Record
Temperature  
Mean Temperature 72 °F 67 °F  
Max Temperature 85 °F 77 °F 94 °F (1929)
Min Temperature 59 °F 56 °F 38 °F (1907)
Degree Days  
Heating Degree Days 0 2  
Month to date heating degree days 100 111  
Since 1 July heating degree days 4516 4459  
Cooling Degree Days 7 4  
Month to date cooling degree days 78 64  
Year to date cooling degree days 117 96  
Growing Degree Days 22 (Base 50)    
Moisture  
Dew Point 58 °F    
Average Humidity 65    
Maximum Humidity 90    
Minimum Humidity 40    
Precipitation  
Precipitation 0.00 in 0.17 in 1.10 in (1917)
Month to date precipitation 4.56 4.30  
Year to date precipitation 15.43 17.64  
Snow  
Snow 0.00 in - - ()
Month to date snowfall 0.0  
Since 1 September snowfall 25.3  
Snow Depth 0.00 in    
Sea Level Pressure  
Sea Level Pressure 30.06 in    
Wind  
Wind Speed 5 mph (SSW)    
Max Wind Speed 20 mph    
Max Gust Speed 26 mph    
Visibility 10 miles    
Events      
T = Trace of Precipitation, MM = Missing Value Source: NWS Daily Summary

Daily Weather History Graph

Daily Weather History Graph

Search for Another Location

Airport or City:

Trip Planner

Search our weather history database for the weather conditions in past years. The results will help you decide how hot, cold, wet, or windy it might be!

Date:

Astronomy

May. 28, 2013 Rise Set
Actual Time 6:06 AM EDT 8:41 PM EDT
Civil Twilight 5:35 AM EDT 9:12 PM EDT
Nautical Twilight 4:56 AM EDT 9:50 PM EDT
Astronomical Twilight 4:14 AM EDT 10:33 PM EDT
Moon No Moon Rise 9:51 AM EDT
Length of Visible Light 15h 37m
Length of Day
14h 35m
Waning Gibbous, 83% of the Moon is Illuminated
May 28
Waning Gibbous
May 31
Last Quarter
Jun 8
New
Jun 16
First Quarter
Jun 23
Full

Hourly Weather History & Observations

Time (EDT) Temp. Heat Index Dew Point Humidity Pressure Visibility Wind Dir Wind Speed Gust Speed Precip Events Conditions
12:54 AM 64.0 °F - 60.1 °F 87% 30.06 in 10.0 mi Calm Calm - N/A   Overcast
1:54 AM 64.9 °F - 57.9 °F 78% 30.05 in 10.0 mi Variable 3.5 mph - N/A   Partly Cloudy
2:54 AM 62.1 °F - 57.9 °F 86% 30.04 in 10.0 mi Calm Calm - N/A   Clear
3:54 AM 61.0 °F - 57.0 °F 87% 30.04 in 10.0 mi SE 4.6 mph - N/A   Scattered Clouds
4:54 AM 62.1 °F - 57.0 °F 84% 30.05 in 10.0 mi Calm Calm - N/A   Clear
5:54 AM 64.9 °F - 57.0 °F 75% 30.07 in 10.0 mi Calm Calm - N/A   Mostly Cloudy
6:54 AM 64.9 °F - 57.0 °F 75% 30.09 in 10.0 mi Calm Calm - N/A   Mostly Cloudy
7:54 AM 68.0 °F - 57.9 °F 70% 30.09 in 10.0 mi Calm Calm - N/A   Mostly Cloudy
8:54 AM 73.0 °F - 60.1 °F 64% 30.11 in 10.0 mi SSE 3.5 mph - N/A   Mostly Cloudy
9:54 AM 77.0 °F - 59.0 °F 54% 30.12 in 10.0 mi SW 8.1 mph - N/A   Scattered Clouds
10:54 AM 79.0 °F - 57.0 °F 47% 30.11 in 10.0 mi WSW 10.4 mph 24.2 mph N/A   Scattered Clouds
11:54 AM 80.1 °F 80.6 °F 57.9 °F 47% 30.11 in 10.0 mi West 11.5 mph 18.4 mph N/A   Scattered Clouds
12:54 PM 80.1 °F 80.7 °F 59.0 °F 48% 30.10 in 10.0 mi WSW 8.1 mph - N/A   Mostly Cloudy
1:54 PM 82.0 °F 81.7 °F 57.0 °F 42% 30.09 in 10.0 mi WSW 10.4 mph 20.7 mph N/A   Mostly Cloudy
2:54 PM 82.0 °F 82.1 °F 59.0 °F 45% 30.08 in 10.0 mi WSW 9.2 mph - N/A   Scattered Clouds
3:54 PM 84.0 °F 83.8 °F 59.0 °F 43% 30.06 in 10.0 mi SW 12.7 mph 16.1 mph N/A   Scattered Clouds
4:54 PM 84.0 °F 83.3 °F 57.0 °F 40% 30.04 in 10.0 mi SSW 11.5 mph 19.6 mph N/A   Scattered Clouds
5:54 PM 84.0 °F 83.3 °F 57.0 °F 40% 30.02 in 10.0 mi SW 6.9 mph - N/A   Scattered Clouds
6:54 PM 84.0 °F 83.3 °F 57.0 °F 40% 30.00 in 10.0 mi South 11.5 mph - N/A   Scattered Clouds
7:54 PM 81.0 °F 81.0 °F 57.0 °F 44% 29.99 in 10.0 mi South 4.6 mph - N/A   Clear
8:54 PM 78.1 °F - 55.9 °F 46% 30.01 in 10.0 mi South 4.6 mph - N/A   Clear
9:54 PM 72.0 °F - 60.1 °F 66% 30.02 in 10.0 mi Calm Calm - N/A   Clear
10:54 PM 68.0 °F - 57.9 °F 70% 30.04 in 10.0 mi South 3.5 mph - N/A   Clear
11:54 PM 66.9 °F - 59.0 °F 76% 30.05 in 10.0 mi Calm Calm - N/A   Clear